Location: Oberkirch
(48.5323°N, 8.0787°E)
Time: 15:32:39
(UTC+00:00)

Vanguard 3 - Pass Details

Date: 18 February 2026
Orbit: 507 x 3205 km, 33.3° (Epoch: 5 March)

Event Time Altitude Azimuth Distance (km) Brightness Sun altitude
Rises 18:00:13 0° 249° (WSW) 4,389 12.5 -11.6°
Reaches altitude 10° 18:04:48 10° 232° (SW) 2,885 10.9 -12.4°
Maximum altitude 18:08:50 17° 194° (SSW) 2,001 9.4 -13.0°
Drops below altitude 10° 18:11:57 10° 154° (SSE) 2,138 9.1 -13.6°
Enters shadow 18:13:11 - 142° (SE) 2,404 9.2 -13.8°
